Miscellaneous Local Product
Issued by NWS Hastings, NE

Home | Current Version | Previous Version | Graphics & Text | Print | Product List | Glossary On
Versions: 1 2 3 4 5 6 7 8 9 10 11 12 13 14 15 16 17 18 19 20 21 22 23 24 25 26 27 28 29 30 31 32 33 34 35 36 37 38 39 40 41 42 43 44 45 46 47 48 49 50
630
AXUS43 KGID 230702
MISGRI

GID CWA HOURLY WEATHER ROUNDUP
NATIONAL WEATHER SERVICE HASTINGS NE
200 AM CDT SAT JUL 23 2016

NOTE: "FAIR" INDICATES FEW OR NO CLOUDS BELOW 12,000 FEET WITH NO
SIGNIFICANT WEATHER AND/OR OBSTRUCTIONS TO VISIBILITY.

...SOUTH CENTRAL NEBRASKA...

CITY           SKY/WX    TMP DP  RH WIND       PRES   REMARKS
GRAND ISLAND   CLOUDY    78  69  73 SE8       29.91F
HASTINGS       CLOUDY    78  67  68 SE9       29.92F
KEARNEY        CLOUDY    77  72  83 W21G31    29.99R
ORD            LGT RAIN  76  70  82 SW30G39   29.99R
YORK           CLOUDY    77  68  73 SE8       29.90F
AURORA         CLOUDY    75  71  85 SE7       29.90F
LEXINGTON      CLOUDY    73  67  82 NW15      30.06R
HOLDREGE       CLOUDY    78  68  70 NW13G21   29.98R
HEBRON         CLOUDY    77  70  78 S6        29.90S

...NEBRASKA PANHANDLE...

CITY           SKY/WX    TMP DP  RH WIND       PRES   REMARKS
CHADRON        CLOUDY    71  61  70 NE3       29.96S
ALLIANCE       CLOUDY    66  61  84 S9        29.98F
SCOTTSBLUFF    CLOUDY    65  60  84 NE3       30.01S
SIDNEY         CLOUDY    68  63  84 CALM      30.06S

...WESTERN AND NORTH CENTRAL NEBRASKA...

CITY           SKY/WX    TMP DP  RH WIND       PRES   REMARKS
VALENTINE      CLOUDY    80  66  62 S14G25    29.90F
AINSWORTH      LGT RAIN  75  65  70 S7        29.91F
ONEILL         CLOUDY    82  77  86 S5        29.90F
BROKEN BOW     LGT RAIN  71  67  87 W14       30.01F
IMPERIAL       TSTM      72  63  73 E15G33    29.96F
NORTH PLATTE   LGT RAIN  70  66  87 SE14G25   29.99F
MCCOOK         TSTM      71  68  90 N14       30.01F FOG

...EASTERN NEBRASKA...

CITY           SKY/WX    TMP DP  RH WIND       PRES   REMARKS
NORFOLK        CLOUDY    79  77  94 SE8       29.89F
SO SIOUX CITY  MOCLDY    83  78  85 SE9       29.88  HX  93
TEKAMAH        MOCLDY    80  78  94 SE7       29.88F
COLUMBUS       MOCLDY    75  66  73 E3        29.90F
ALBION         CLOUDY    76  73  87 SE3       29.90F
OMAHA EPPLEY   CLOUDY    84  77  79 S10       29.89F HX  94
OFFUTT AFB     PTCLDY    81  77  86 E7        29.90S
MILLARD        CLOUDY    82  75  79 SE6       29.90S
LINCOLN        CLOUDY    82  73  74 S9        29.89F
NEBRASKA CITY  PTCLDY    80  75  85 S8        29.92S
BEATRICE       CLOUDY    82  73  72 SE12G17   29.90S
FALLS CITY     CLOUDY    81  75  82 SE7       29.92F

...NORTHERN KANSAS...

CITY           SKY/WX    TMP DP  RH WIND       PRES   REMARKS
GOODLAND       TSTM      78  61  55 S7        29.99S
HILL CITY      MOCLDY    84  61  45 SW12      29.92S
NORTON         SUNNY     79  63  57 NW21G30   29.98R
SMITH CENTER   CLEAR     73  66  78 E8        29.90S
BELOIT         CLEAR     81  70  69 SE9       29.88S
HAYS           CLOUDY    82  59  44 S9        29.92S
RUSSELL        CLOUDY    87  61  41 S13       29.90R
CONCORDIA      CLOUDY    82  68  62 S16       29.90R
SALINA         CLOUDY    85  67  54 S12       29.90S
TOPEKA         CLOUDY    83  71  67 SE6       29.94S



USA.gov is the U.S. government's official web portal to all federal, state and local government web resources and services.